DW0251 Weather Reports


time (UTC)temp
C
wind
direction
speed
KPH
gust
KPH
rain 1hr
cm
rain 24hr
cm
rain mn
cm
humidity
%
barometer
mb
20260504050701 12 132 0.0 0.0 0.00 0.00 0.00 70 1009.6
20260504050501 12 132 0.0 0.0 0.00 0.00 0.00 70 1009.6
20260504050404 12 132 0.0 0.0 0.00 0.00 0.00 70 1009.6
20260504050301 12 132 0.0 0.0 0.00 0.00 0.00 69 1009.5
20260504050200 12 132 0.0 0.0 0.00 0.00 0.00 69 1009.6
20260504050006 12 132 0.0 0.0 0.00 0.00 0.00 69 1009.5
20260504045901 12 132 0.0 0.0 0.00 0.00 0.00 69 1009.6
20260504045801 12 132 0.0 0.0 0.00 0.00 0.00 69 1009.6
20260504045703 12 134 0.0 0.0 0.00 0.00 0.00 69 1009.6
20260504045601 12 134 0.0 0.0 0.00 0.00 0.00 69 1009.6
20260504045501 12 134 0.0 0.0 0.00 0.00 0.00 69 1009.6
20260504045401 12 134 0.0 0.0 0.00 0.00 0.00 69 1009.6
20260504045100 12 134 0.0 0.0 0.00 0.00 0.00 69 1009.6
20260504045000 12 134 0.0 0.0 0.00 0.00 0.00 68 1009.6
20260504044904 12 137 0.0 0.0 0.00 0.00 0.00 68 1009.7
20260504044800 12 138 0.0 4.8 0.00 0.00 0.00 68 1009.7
20260504044701 12 138 0.0 4.8 0.00 0.00 0.00 68 1009.6
20260504044601 12 138 0.0 4.8 0.00 0.00 0.00 68 1009.7
20260504044504 12 138 0.0 4.8 0.00 0.00 0.00 69 1009.7
20260504044400 12 138 0.0 4.8 0.00 0.00 0.00 69 1009.7
20260504044301 12 138 0.0 4.8 0.00 0.00 0.00 68 1009.7
20260504044201 12 138 0.0 4.8 0.00 0.00 0.00 68 1009.7
20260504044104 12 163 0.0 4.8 0.00 0.00 0.00 69 1009.7
20260504043901 12 163 0.0 4.8 0.00 0.00 0.00 68 1009.8
20260504043800 12 192 0.0 0.0 0.00 0.00 0.00 69 1009.8
20260504043501 12 192 0.0 0.0 0.00 0.00 0.00 68 1009.7
20260504043400 12 192 0.0 0.0 0.00 0.00 0.00 68 1009.7
20260504043200 12 192 0.0 0.0 0.00 0.00 0.00 68 1009.7
20260504043101 12 192 0.0 0.0 0.00 0.00 0.00 68 1009.7
20260504043002 12 192 0.0 0.0 0.00 0.00 0.00 67 1009.8
20260504042903 12 192 0.0 0.0 0.00 0.00 0.00 68 1009.8
20260504042700 12 204 0.0 0.0 0.00 0.00 0.00 68 1009.7
20260504042600 12 204 0.0 0.0 0.00 0.00 0.00 68 1009.8
20260504042502 12 206 0.0 0.0 0.00 0.00 0.00 68 1009.8
20260504042401 12 206 0.0 0.0 0.00 0.00 0.00 68 1009.7
20260504042300 13 206 0.0 0.0 0.00 0.00 0.00 68 1009.8
20260504042103 13 206 0.0 0.0 0.00 0.00 0.00 68 1009.8
20260504042001 13 206 0.0 0.0 0.00 0.00 0.00 67 1009.8
20260504041901 13 206 0.0 0.0 0.00 0.00 0.00 67 1009.8
20260504041800 13 206 0.0 0.0 0.00 0.00 0.00 67 1009.8
20260504041703 13 206 0.0 0.0 0.00 0.00 0.00 67 1009.9
20260504041601 13 206 0.0 0.0 0.00 0.00 0.00 67 1009.8
20260504041501 13 208 0.0 8.0 0.00 0.00 0.00 67 1009.9
20260504041401 13 208 0.0 8.0 0.00 0.00 0.00 67 1009.9
20260504041100 13 232 0.0 8.0 0.00 0.00 0.00 67 1009.9
20260504041001 13 232 0.0 8.0 0.00 0.00 0.00 67 1009.9
20260504040904 13 232 0.0 8.0 0.00 0.00 0.00 67 1010.0
20260504040801 13 238 0.0 8.0 0.00 0.00 0.00 67 1010.0
20260504040700 13 238 0.0 8.0 0.00 0.00 0.00 67 1010.0
20260504040401 13 150 0.0 0.0 0.00 0.00 0.00 68 1010.1
20260504040301 13 127 0.0 0.0 0.00 0.00 0.00 68 1010.1
20260504040201 13 127 0.0 8.0 0.00 0.00 0.00 67 1010.1
20260504040005 13 127 0.0 8.0 0.00 0.00 0.00 67 1010.1
20260504035901 13 127 0.0 8.0 0.00 0.00 0.00 67 1010.1
20260504035701 13 130 0.0 8.0 0.00 0.00 0.00 68 1010.2
20260504035601 13 130 0.0 8.0 0.00 0.00 0.00 68 1010.2
20260504035501 13 130 0.0 8.0 0.00 0.00 0.00 67 1010.1
20260504035403 13 130 0.0 8.0 0.00 0.00 0.00 67 1010.0
20260504035301 13 140 0.0 4.8 0.00 0.00 0.00 67 1010.0
20260504035200 13 173 0.0 0.0 0.00 0.00 0.00 67 1010.1
20260504035101 13 173 0.0 0.0 0.00 0.00 0.00 68 1010.0
20260504035003 13 173 0.0 0.0 0.00 0.00 0.00 68 1010.2
20260504034900 13 173 0.0 0.0 0.00 0.00 0.00 68 1010.1
20260504034801 13 173 0.0 3.2 0.00 0.00 0.00 68 1010.1
20260504034700 13 173 0.0 3.2 0.00 0.00 0.00 68 1010.1
20260504034501 13 173 0.0 3.2 0.00 0.00 0.00 69 1010.2
20260504034401 13 173 0.0 3.2 0.00 0.00 0.00 68 1010.1
20260504034301 13 173 0.0 3.2 0.00 0.00 0.00 68 1010.2
20260504034202 13 173 0.0 3.2 0.00 0.00 0.00 67 1010.2
20260504034101 13 173 0.0 3.2 0.00 0.00 0.00 67 1010.2
20260504034001 13 173 0.0 3.2 0.00 0.00 0.00 67 1010.2
20260504033901 13 148 0.0 0.0 0.00 0.00 0.00 67 1010.2
20260504033701 13 148 0.0 0.0 0.00 0.00 0.00 68 1010.3
20260504033601 13 148 0.0 0.0 0.00 0.00 0.00 68 1010.2
20260504033501 13 148 0.0 0.0 0.00 0.00 0.00 68 1010.2
20260504033403 13 130 0.0 0.0 0.00 0.00 0.00 68 1010.3
20260504033301 13 130 0.0 0.0 0.00 0.00 0.00 69 1010.3
20260504033201 13 130 0.0 0.0 0.00 0.00 0.00 68 1010.3
20260504033101 13 130 0.0 0.0 0.00 0.00 0.00 68 1010.3
20260504033003 13 130 0.0 0.0 0.00 0.00 0.00 68 1010.3
20260504032901 13 130 0.0 0.0 0.00 0.00 0.00 68 1010.4
20260504032800 13 130 0.0 0.0 0.00 0.00 0.00 68 1010.3
20260504032701 13 130 0.0 0.0 0.00 0.00 0.00 68 1010.3
20260504032501 13 159 0.0 0.0 0.00 0.00 0.00 68 1010.3
20260504032300 13 159 0.0 0.0 0.00 0.00 0.00 68 1010.4
20260504032203 13 159 0.0 0.0 0.00 0.00 0.00 68 1010.4
20260504032101 13 159 0.0 0.0 0.00 0.00 0.00 67 1010.4
20260504032000 13 159 0.0 0.0 0.00 0.00 0.00 67 1010.4
20260504031900 13 159 0.0 0.0 0.00 0.00 0.00 67 1010.4
20260504031802 13 159 0.0 0.0 0.00 0.00 0.00 67 1010.4
20260504031700 13 159 0.0 0.0 0.00 0.00 0.00 67 1010.4
20260504031601 13 159 0.0 0.0 0.00 0.00 0.00 67 1010.4
20260504031500 13 159 0.0 0.0 0.00 0.00 0.00 67 1010.4
20260504031403 13 159 0.0 0.0 0.00 0.00 0.00 67 1010.5
20260504031302 13 159 0.0 0.0 0.00 0.00 0.00 67 1010.5
20260504031201 13 159 0.0 0.0 0.00 0.00 0.00 66 1010.5
20260504031100 13 159 0.0 0.0 0.00 0.00 0.00 66 1010.4
20260504031004 13 159 0.0 0.0 0.00 0.00 0.00 66 1010.5
20260504030800 13 159 0.0 0.0 0.00 0.00 0.00 66 1010.5
20260504030703 13 159 0.0 0.0 0.00 0.00 0.00 66 1010.5
20260504030601 13 159 0.0 0.0 0.00 0.00 0.00 66 1010.5
20260504030500 13 159 0.0 0.0 0.00 0.00 0.00 66 1010.5
20260504030401 13 159 0.0 0.0 0.00 0.00 0.00 66 1010.5
20260504030302 13 159 0.0 0.0 0.00 0.00 0.00 66 1010.5
20260504030101 13 159 0.0 0.0 0.00 0.00 0.00 66 1010.5
20260504030003 13 159 0.0 0.0 0.00 0.00 0.00 66 1010.5
20260504025903 13 159 0.0 0.0 0.00 0.00 0.00 66 1010.5
20260504025800 13 159 0.0 0.0 0.00 0.00 0.00 65 1010.5
20260504025602 13 159 0.0 0.0 0.00 0.00 0.00 66 1010.5
20260504025503 13 159 0.0 0.0 0.00 0.00 0.00 66 1010.5
20260504025400 13 159 0.0 0.0 0.00 0.00 0.00 66 1010.5
20260504025304 13 159 0.0 0.0 0.00 0.00 0.00 66 1010.5
20260504025200 13 159 0.0 0.0 0.00 0.00 0.00 65 1010.6
20260504025103 13 159 0.0 0.0 0.00 0.00 0.00 65 1010.6
20260504024900 13 159 0.0 0.0 0.00 0.00 0.00 65 1010.5
20260504024801 13 159 0.0 0.0 0.00 0.00 0.00 65 1010.5
20260504024703 13 159 0.0 0.0 0.00 0.00 0.00 65 1010.6
20260504024601 13 159 0.0 0.0 0.00 0.00 0.00 65 1010.6
20260504024501 13 159 0.0 0.0 0.00 0.00 0.00 65 1010.6
20260504024401 13 159 0.0 0.0 0.00 0.00 0.00 65 1010.6
20260504024303 13 159 0.0 0.0 0.00 0.00 0.00 65 1010.6
20260504024200 13 159 0.0 0.0 0.00 0.00 0.00 64 1010.6
20260504024000 13 159 0.0 0.0 0.00 0.00 0.00 64 1010.6
20260504023903 13 159 0.0 0.0 0.00 0.00 0.00 64 1010.6
20260504023800 13 159 0.0 0.0 0.00 0.00 0.00 64 1010.6
20260504023701 13 159 0.0 0.0 0.00 0.00 0.00 64 1010.6
20260504023601 13 159 0.0 0.0 0.00 0.00 0.00 63 1010.6
20260504023503 13 159 0.0 0.0 0.00 0.00 0.00 64 1010.6
20260504023400 13 159 0.0 0.0 0.00 0.00 0.00 64 1010.6
20260504023301 13 159 0.0 0.0 0.00 0.00 0.00 64 1010.6
20260504023200 13 159 0.0 0.0 0.00 0.00 0.00 64 1010.5
20260504023104 13 157 0.0 0.0 0.00 0.00 0.00 63 1010.6
20260504022901 13 157 0.0 0.0 0.00 0.00 0.00 63 1010.5
20260504022800 13 157 0.0 0.0 0.00 0.00 0.00 64 1010.5
20260504022601 13 157 0.0 0.0 0.00 0.00 0.00 64 1010.4
20260504022500 13 157 0.0 0.0 0.00 0.00 0.00 63 1010.3
20260504022400 13 157 0.0 0.0 0.00 0.00 0.00 63 1010.4
20260504022305 13 157 0.0 0.0 0.00 0.00 0.00 63 1010.4
20260504022201 13 157 0.0 0.0 0.00 0.00 0.00 63 1010.4
20260504022100 13 157 0.0 0.0 0.00 0.00 0.00 63 1010.4
20260504022001 13 157 0.0 0.0 0.00 0.00 0.00 64 1010.4
20260504021906 13 157 0.0 0.0 0.00 0.00 0.00 64 1010.3
20260504021801 13 157 0.0 0.0 0.00 0.00 0.00 63 1010.4
20260504021700 13 157 0.0 0.0 0.00 0.00 0.00 64 1010.4
20260504021604 13 157 0.0 0.0 0.00 0.00 0.00 64 1010.3
20260504021501 13 157 0.0 0.0 0.00 0.00 0.00 64 1010.2
20260504021302 13 157 0.0 0.0 0.00 0.00 0.00 64 1010.2
20260504021204 13 157 0.0 0.0 0.00 0.00 0.00 64 1010.2
20260504021101 13 157 0.0 1.6 0.00 0.00 0.00 64 1010.3
20260504020901 13 157 0.0 3.2 0.00 0.00 0.00 64 1010.2
20260504020804 13 157 0.0 3.2 0.00 0.00 0.00 64 1010.3
20260504020701 13 157 0.0 3.2 0.00 0.00 0.00 63 1010.3
20260504020601 13 157 0.0 3.2 0.00 0.00 0.00 63 1010.3
20260504020501 13 157 0.0 3.2 0.00 0.00 0.00 63 1010.4
20260504020403 13 157 0.0 3.2 0.00 0.00 0.00 63 1010.3
20260504020301 14 157 0.0 9.7 0.00 0.00 0.00 63 1010.3
20260504020202 14 144 0.0 9.7 0.00 0.00 0.00 63 1010.3
20260504020100 14 144 0.0 9.7 0.00 0.00 0.00 63 1010.3
20260504015900 14 159 0.0 9.7 0.00 0.00 0.00 63 1010.2
20260504015801 14 159 0.0 9.7 0.00 0.00 0.00 63 1010.3
20260504015701 14 159 0.0 9.7 0.00 0.00 0.00 62 1010.2
20260504015604 14 159 0.0 9.7 0.00 0.00 0.00 63 1010.3
20260504015501 14 159 0.0 9.7 0.00 0.00 0.00 62 1010.3
20260504015300 14 153 0.0 0.0 0.00 0.00 0.00 62 1010.2
20260504015203 14 153 0.0 0.0 0.00 0.00 0.00 62 1010.3
20260504015101 14 153 0.0 1.6 0.00 0.00 0.00 62 1010.3
20260504015001 14 153 0.0 1.6 0.00 0.00 0.00 62 1010.3
20260504014901 14 153 0.0 1.6 0.00 0.00 0.00 62 1010.4
20260504014803 14 161 0.0 1.6 0.00 0.00 0.00 62 1010.3
20260504014700 14 111 0.0 1.6 0.00 0.00 0.00 63 1010.4
20260504014600 14 111 0.0 1.6 0.00 0.00 0.00 63 1010.3
20260504014500 14 111 0.0 1.6 0.00 0.00 0.00 62 1010.3
20260504014404 14 111 0.0 1.6 0.00 0.00 0.00 62 1010.4
20260504014300 14 111 0.0 1.6 0.00 0.00 0.00 62 1010.4
20260504014202 14 174 0.0 0.0 0.00 0.00 0.00 62 1010.4
20260504014102 14 174 0.0 0.0 0.00 0.00 0.00 62 1010.4
20260504014003 14 174 0.0 0.0 0.00 0.00 0.00 61 1010.3
20260504013700 14 174 0.0 0.0 0.00 0.00 0.00 61 1010.3
20260504013603 14 174 0.0 0.0 0.00 0.00 0.00 62 1010.3
20260504013501 15 174 0.0 0.0 0.00 0.00 0.00 62 1010.3
20260504013401 15 174 0.0 0.0 0.00 0.00 0.00 63 1010.3
20260504013301 15 174 0.0 0.0 0.00 0.00 0.00 63 1010.4
20260504013204 15 174 0.0 0.0 0.00 0.00 0.00 62 1010.3
20260504013101 15 174 0.0 0.0 0.00 0.00 0.00 62 1010.3
20260504012901 15 174 0.0 0.0 0.00 0.00 0.00 62 1010.4
20260504012803 15 174 0.0 0.0 0.00 0.00 0.00 63 1010.4
20260504012701 15 149 0.0 0.0 0.00 0.00 0.00 63 1010.4
20260504012600 15 149 0.0 0.0 0.00 0.00 0.00 63 1010.4
20260504012404 15 149 0.0 0.0 0.00 0.00 0.00 62 1010.3
20260504012300 15 149 0.0 0.0 0.00 0.00 0.00 61 1010.2
20260504012003 15 125 0.0 0.0 0.00 0.00 0.00 62 1010.4
20260504011900 15 125 0.0 0.0 0.00 0.00 0.00 63 1010.2
20260504011604 15 134 0.0 1.6 0.00 0.00 0.00 63 1010.4
20260504011401 15 134 0.0 1.6 0.00 0.00 0.00 63 1010.3
20260504011301 15 134 0.0 1.6 0.00 0.00 0.00 63 1010.3
20260504011203 15 134 0.0 1.6 0.00 0.00 0.00 63 1010.2
20260504011101 15 134 0.0 1.6 0.00 0.00 0.00 63 1010.2
20260504010900 15 134 0.0 1.6 0.00 0.00 0.00 62 1010.2
20260504010804 15 134 0.0 0.0 0.00 0.00 0.00 62 1010.2
20260504010701 15 134 0.0 0.0 0.00 0.00 0.00 62 1010.3
20260504010601 15 134 0.0 0.0 0.00 0.00 0.00 62 1010.2
20260504010501 15 134 0.0 0.0 0.00 0.00 0.00 62 1010.2
20260504010404 15 134 0.0 0.0 0.00 0.00 0.00 62 1010.2
20260504010301 15 134 0.0 0.0 0.00 0.00 0.00 62 1010.2
20260504010201 15 134 0.0 0.0 0.00 0.00 0.00 61 1010.2
20260504010101 15 134 0.0 0.0 0.00 0.00 0.00 62 1010.2
20260504010005 15 134 0.0 1.6 0.00 0.00 0.00 63 1010.2
20260504005901 15 134 0.0 1.6 0.00 0.00 0.00 63 1010.2
20260504005800 15 134 0.0 1.6 0.00 0.00 0.00 62 1010.2
20260504005700 15 134 0.0 1.6 0.00 0.00 0.00 62 1010.1
20260504005602 15 134 0.0 1.6 0.00 0.00 0.00 62 1010.2
20260504005501 15 134 0.0 1.6 0.00 0.00 0.00 61 1010.1
20260504005400 15 134 0.0 1.6 0.00 0.00 0.00 62 1010.2
20260504005301 15 134 0.0 1.6 0.00 0.00 0.00 62 1010.2
20260504005204 15 134 0.0 1.6 0.00 0.00 0.00 62 1010.1
20260504005100 15 134 0.0 1.6 0.00 0.00 0.00 62 1010.1
20260504004901 15 133 0.0 0.0 0.00 0.00 0.00 62 1010.0
20260504004803 15 133 0.0 0.0 0.00 0.00 0.00 62 1010.0
20260504004602 15 133 0.0 0.0 0.00 0.00 0.00 61 1010.0
20260504004502 15 136 0.0 0.0 0.00 0.00 0.00 62 1010.1
20260504004403 15 136 0.0 0.0 0.00 0.00 0.00 62 1010.1
20260504004300 15 142 0.0 1.6 0.00 0.00 0.00 62 1010.0
20260504004202 15 142 0.0 6.4 0.00 0.00 0.00 62 1010.0
20260504004101 15 142 0.0 6.4 0.00 0.00 0.00 61 1010.0
20260504003900 15 142 0.0 6.4 0.00 0.00 0.00 61 1010.0
20260504003801 15 142 0.0 6.4 0.00 0.00 0.00 60 1010.0
20260504003700 15 142 0.0 6.4 0.00 0.00 0.00 61 1010.0
20260504003603 15 142 0.0 6.4 0.00 0.00 0.00 62 1010.1
20260504003501 15 146 0.0 6.4 0.00 0.00 0.00 61 1010.0
20260504003401 15 323 0.0 3.2 0.00 0.00 0.00 60 1010.0
20260504003204 15 320 0.0 4.8 0.00 0.00 0.00 61 1010.0
20260504003101 15 304 0.0 4.8 0.00 0.00 0.00 61 1010.0
20260504003000 15 304 0.0 4.8 0.00 0.00 0.00 62 1010.0
20260504002900 15 304 0.0 4.8 0.00 0.00 0.00 62 1010.0
20260504002803 15 303 0.0 4.8 0.00 0.00 0.00 61 1010.0
20260504002701 15 128 0.0 4.8 0.00 0.00 0.00 61 1009.9
20260504002601 15 171 0.0 4.8 0.00 0.00 0.00 63 1010.1
20260504002404 15 171 0.0 4.8 0.00 0.00 0.00 62 1010.2
20260504002303 15 153 0.0 3.2 0.00 0.00 0.00 61 1010.2
20260504002201 15 153 0.0 8.0 0.00 0.00 0.00 62 1010.4
20260504002100 15 153 0.0 8.0 0.00 0.00 0.00 62 1010.5
20260504002004 15 153 0.0 8.0 0.00 0.00 0.00 60 1010.6
20260504001900 15 153 0.0 8.0 0.00 0.00 0.00 60 1010.6
20260504001800 15 153 0.0 8.0 0.00 0.00 0.00 61 1010.7
20260504001701 15 153 0.0 8.0 0.00 0.00 0.00 61 1010.7
20260504001501 15 147 0.0 8.0 0.00 0.00 0.00 60 1010.8
20260504001401 15 147 0.0 8.0 0.00 0.00 0.00 61 1010.9
20260504001200 15 265 0.0 0.0 0.00 0.00 0.00 62 1011.0
20260504001101 15 265 0.0 0.0 0.00 0.00 0.00 61 1011.1
20260504001001 15 265 0.0 0.0 0.00 0.00 0.00 61 1011.1
20260504000800 15 265 0.0 0.0 0.00 0.00 0.00 60 1011.1
20260504000701 15 265 0.0 0.0 0.00 0.00 0.00 60 1011.2
20260504000601 15 265 0.0 0.0 0.00 0.00 0.00 60 1011.2
20260504000506 15 265 0.0 0.0 0.00 0.00 0.00 60 1011.2
20260504000401 15 265 0.0 0.0 0.00 0.00 0.00 60 1011.2
20260504000301 15 265 0.0 0.0 0.00 0.00 0.00 59 1011.2
20260504000104 15 269 0.0 0.0 0.00 0.00 0.00 59 1011.1
20260504000002 15 269 0.0 0.0 0.00 0.00 0.00 59 1011.2
20260503235901 15 269 0.0 0.0 0.00 0.00 0.00 59 1011.1
20260503235804 15 269 0.0 0.0 0.00 0.00 0.00 59 1011.1
20260503235701 15 269 0.0 0.0 0.00 0.00 0.00 58 1011.1
20260503235601 15 269 0.0 0.0 0.00 0.00 0.00 58 1011.1
20260503235501 15 269 0.0 0.0 0.00 0.00 0.00 59 1011.1
20260503235404 15 269 0.0 0.0 0.00 0.00 0.00 59 1011.0
20260503235301 15 163 0.0 0.0 0.00 0.00 0.00 60 1011.0
20260503235201 15 163 0.0 0.0 0.00 0.00 0.00 59 1011.0
20260503235101 16 163 0.0 0.0 0.00 0.00 0.00 60 1011.1
20260503235002 16 163 0.0 0.0 0.00 0.00 0.00 60 1011.1
20260503234900 16 163 0.0 0.0 0.00 0.00 0.00 59 1011.1
20260503234802 16 163 0.0 0.0 0.00 0.00 0.00 59 1011.1
20260503234701 16 163 0.0 0.0 0.00 0.00 0.00 59 1011.1
20260503234604 16 163 0.0 0.0 0.00 0.00 0.00 60 1011.1
20260503234500 16 163 0.0 0.0 0.00 0.00 0.00 58 1011.1
20260503234401 16 163 0.0 0.0 0.00 0.00 0.00 59 1011.2
20260503234301 16 163 0.0 0.0 0.00 0.00 0.00 58 1011.2
20260503234202 16 163 0.0 0.0 0.00 0.00 0.00 59 1011.1
20260503234100 16 163 0.0 0.0 0.00 0.00 0.00 59 1011.2
20260503233900 16 163 0.0 0.0 0.00 0.00 0.00 58 1011.1
20260503233803 16 163 0.0 0.0 0.00 0.00 0.00 58 1011.2
20260503233701 16 168 0.0 0.0 0.00 0.00 0.00 59 1011.3
20260503233602 16 168 0.0 0.0 0.00 0.00 0.00 59 1011.4
20260503233500 16 168 0.0 0.0 0.00 0.00 0.00 58 1011.4
20260503233404 16 168 0.0 0.0 0.00 0.00 0.00 59 1011.4
20260503233302 16 168 0.0 0.0 0.00 0.00 0.00 59 1011.6
20260503233201 16 168 0.0 0.0 0.00 0.00 0.00 59 1011.6
20260503233100 16 168 0.0 0.0 0.00 0.00 0.00 60 1011.8
20260503233004 16 168 0.0 0.0 0.00 0.00 0.00 60 1011.8
20260503232801 16 168 0.0 0.0 0.00 0.00 0.00 59 1011.7
20260503232702 16 168 0.0 0.0 0.00 0.00 0.00 59 1011.7
20260503232604 16 168 0.0 0.0 0.00 0.00 0.00 58 1011.7
20260503232501 16 168 0.0 0.0 0.00 0.00 0.00 58 1011.7
20260503232401 16 168 0.0 0.0 0.00 0.00 0.00 57 1011.6
20260503232301 16 168 0.0 0.0 0.00 0.00 0.00 57 1011.8
20260503232204 16 168 0.0 0.0 0.00 0.00 0.00 58 1011.8
20260503232001 16 230 0.0 0.0 0.00 0.00 0.00 61 1011.7
20260503231804 16 230 0.0 0.0 0.00 0.00 0.00 60 1011.7
20260503231701 16 230 0.0 0.0 0.00 0.00 0.00 60 1011.7
20260503231601 16 230 0.0 0.0 0.00 0.00 0.00 58 1011.7
20260503231500 16 230 0.0 0.0 0.00 0.00 0.00 59 1011.7
20260503231404 16 232 0.0 0.0 0.00 0.00 0.00 60 1011.7
20260503231300 16 232 0.0 0.0 0.00 0.00 0.00 60 1011.6
20260503231201 16 232 0.0 0.0 0.00 0.00 0.00 60 1011.6
20260503231101 16 232 0.0 0.0 0.00 0.00 0.00 61 1011.6
20260503230900 16 232 0.0 0.0 0.00 0.00 0.00 61 1011.4
20260503230801 16 114 0.0 0.0 0.00 0.00 0.00 60 1011.4
20260503230700 16 114 0.0 0.0 0.00 0.00 0.00 60 1011.3
20260503230604 16 114 0.0 0.0 0.00 0.00 0.00 58 1011.3
20260503230501 16 148 0.0 0.0 0.00 0.00 0.00 57 1011.2
20260503230401 16 146 0.0 0.0 0.00 0.00 0.00 56 1011.2
20260503230301 16 151 0.0 0.0 0.00 0.00 0.00 55 1011.1
20260503230204 16 151 0.0 0.0 0.00 0.00 0.00 55 1011.1
20260503230003 16 152 0.0 0.0 0.00 0.00 0.00 56 1011.1
20260503225901 16 152 0.0 0.0 0.00 0.00 0.00 56 1011.1
20260503225803 16 152 0.0 0.0 0.00 0.00 0.00 56 1011.1
20260503225701 16 152 0.0 0.0 0.00 0.00 0.00 55 1011.0
20260503225601 16 78 0.0 0.0 0.00 0.00 0.00 55 1011.0
20260503225501 16 78 0.0 0.0 0.00 0.00 0.00 54 1011.1
20260503225402 16 75 0.0 0.0 0.00 0.00 0.00 55 1011.0
20260503225301 16 75 0.0 0.0 0.00 0.00 0.00 56 1011.0
20260503225201 16 217 0.0 0.0 0.00 0.00 0.00 55 1011.1
20260503225101 16 217 0.0 0.0 0.00 0.00 0.00 56 1011.2
20260503225003 16 217 0.0 0.0 0.00 0.00 0.00 55 1011.2
20260503224800 16 214 0.0 0.0 0.00 0.00 0.00 55 1011.1
20260503224701 16 72 0.0 0.0 0.00 0.00 0.00 57 1011.1
20260503224604 16 329 0.0 0.0 0.00 0.00 0.00 57 1011.2
20260503224501 16 329 0.0 0.0 0.00 0.00 0.00 57 1011.2
20260503224300 16 329 0.0 0.0 0.00 0.00 0.00 58 1011.3
20260503224206 16 329 0.0 0.0 0.00 0.00 0.00 59 1011.2
20260503224101 16 329 0.0 0.0 0.00 0.00 0.00 58 1011.2
20260503224001 16 328 0.0 4.8 0.00 0.00 0.00 56 1011.3
20260503223903 16 328 0.0 4.8 0.00 0.00 0.00 56 1011.3
20260503223800 16 328 0.0 4.8 0.00 0.00 0.00 57 1011.3
20260503223701 16 328 0.0 4.8 0.00 0.00 0.00 57 1011.2
20260503223601 16 328 0.0 4.8 0.00 0.00 0.00 57 1011.3
20260503223505 16 328 0.0 4.8 0.00 0.00 0.00 57 1011.3
20260503223400 16 328 0.0 4.8 0.00 0.00 0.00 55 1011.3
20260503223300 16 103 0.0 4.8 0.00 0.00 0.00 56 1011.3
20260503223203 16 103 0.0 4.8 0.00 0.00 0.00 56 1011.4
20260503223001 16 242 0.0 3.2 0.00 0.00 0.00 56 1011.4
20260503222900 16 242 0.0 3.2 0.00 0.00 0.00 56 1011.4
20260503222803 16 242 0.0 3.2 0.00 0.00 0.00 56 1011.3
20260503222701 16 242 0.0 3.2 0.00 0.00 0.00 55 1011.3
20260503222601 16 213 0.0 6.4 0.00 0.00 0.00 56 1011.4
20260503222500 16 190 0.0 6.4 0.00 0.00 0.00 55 1011.4
20260503222402 16 190 0.0 6.4 0.00 0.00 0.00 57 1011.5
20260503222301 16 69 0.0 6.4 0.00 0.00 0.00 56 1011.5
20260503222200 16 55 0.0 6.4 0.00 0.00 0.00 57 1011.3
20260503222007 16 55 0.0 6.4 0.00 0.00 0.00 56 1011.4
20260503221901 16 57 0.0 6.4 0.00 0.00 0.00 56 1011.3
20260503221801 16 166 0.0 6.4 0.00 0.00 0.00 57 1011.3
20260503221701 16 234 0.0 4.8 0.00 0.00 0.00 56 1011.3
20260503221602 16 234 0.0 4.8 0.00 0.00 0.00 54 1011.3
20260503221501 16 234 0.0 9.7 0.00 0.00 0.00 54 1011.3
20260503221401 16 207 0.0 9.7 0.00 0.00 0.00 56 1011.2
20260503221203 16 188 0.0 9.7 0.00 0.00 0.00 55 1011.3
20260503221100 16 188 0.0 9.7 0.00 0.00 0.00 56 1011.3
20260503221000 16 189 0.0 9.7 0.00 0.00 0.00 55 1011.3
20260503220900 16 192 0.0 9.7 0.00 0.00 0.00 55 1011.4
20260503220802 16 281 0.0 9.7 0.00 0.00 0.00 55 1011.4
20260503220700 16 188 0.0 9.7 0.00 0.00 0.00 53 1011.4
20260503220601 16 267 0.0 4.8 0.00 0.00 0.00 54 1011.4
20260503220500 16 269 0.0 4.8 0.00 0.00 0.00 54 1011.4
20260503220404 16 269 0.0 4.8 0.00 0.00 0.00 55 1011.3
20260503220301 16 150 0.0 4.8 0.00 0.00 0.00 55 1011.4
20260503220005 16 143 0.0 3.2 0.00 0.00 0.00 54 1011.6
20260503215900 16 143 0.0 3.2 0.00 0.00 0.00 54 1011.6
20260503215801 16 185 0.0 3.2 0.00 0.00 0.00 55 1011.6
20260503215703 16 186 0.0 3.2 0.00 0.00 0.00 55 1011.5
20260503215501 16 170 0.0 9.7 0.00 0.00 0.00 55 1011.4
20260503215401 16 170 0.0 14.5 0.00 0.00 0.00 54 1011.4
20260503215304 16 207 0.0 14.5 0.00 0.00 0.00 53 1011.5
20260503215201 16 207 0.0 14.5 0.00 0.00 0.00 53 1011.4
20260503215100 16 200 0.0 14.5 0.00 0.00 0.00 54 1011.4
20260503215003 16 184 0.0 14.5 0.00 0.00 0.00 55 1011.4
20260503214900 16 185 0.0 14.5 0.00 0.00 0.00 56 1011.4
20260503214701 16 148 0.0 14.5 0.00 0.00 0.00 54 1011.6
20260503214603 16 172 0.0 14.5 0.00 0.00 0.00 54 1011.7
20260503214501 16 318 0.0 0.0 0.00 0.00 0.00 54 1011.6
20260503214401 16 318 0.0 0.0 0.00 0.00 0.00 54 1011.5
20260503214300 16 318 0.0 0.0 0.00 0.00 0.00 56 1011.6
20260503214203 16 318 0.0 0.0 0.00 0.00 0.00 54 1011.7
20260503214001 16 317 0.0 0.0 0.00 0.00 0.00 54 1011.6
20260503213900 16 321 0.0 0.0 0.00 0.00 0.00 55 1011.6
20260503213803 16 321 0.0 0.0 0.00 0.00 0.00 55 1011.7
20260503213701 16 321 0.0 0.0 0.00 0.00 0.00 54 1011.6
20260503213601 16 321 0.0 0.0 0.00 0.00 0.00 54 1011.5
20260503213500 16 28 0.0 0.0 0.00 0.00 0.00 55 1011.5
20260503213403 16 288 0.0 9.7 0.00 0.00 0.00 54 1011.5
20260503213300 16 224 0.0 9.7 0.00 0.00 0.00 54 1011.4
20260503213200 16 224 0.0 9.7 0.00 0.00 0.00 56 1011.3
20260503213100 16 224 0.0 9.7 0.00 0.00 0.00 54 1011.4
20260503213004 16 222 0.0 9.7 0.00 0.00 0.00 54 1011.5
20260503212900 16 223 0.0 9.7 0.00 0.00 0.00 54 1011.5
20260503212759 16 223 0.0 9.7 0.00 0.00 0.00 53 1011.6
20260503212701 16 223 0.0 9.7 0.00 0.00 0.00 53 1011.8
20260503212604 16 184 0.0 9.7 0.00 0.00 0.00 54 1011.8
20260503212501 16 107 0.0 6.4 0.00 0.00 0.00 53 1011.8
20260503212401 16 105 0.0 6.4 0.00 0.00 0.00 55 1011.9
20260503212300 16 77 0.0 6.4 0.00 0.00 0.00 54 1011.8
20260503212100 16 153 0.0 6.4 0.00 0.00 0.00 54 1011.9
20260503211901 16 294 0.0 6.4 0.00 0.00 0.00 54 1012.1
20260503211802 16 101 0.0 4.8 0.00 0.00 0.00 53 1012.1
20260503211702 16 80 0.0 4.8 0.00 0.00 0.00 54 1012.0
20260503211501 16 236 0.0 4.8 0.00 0.00 0.00 54 1012.1
20260503211403 16 246 0.0 4.8 0.00 0.00 0.00 54 1012.0
20260503211300 16 168 0.0 4.8 0.00 0.00 0.00 52 1012.0
20260503211201 16 168 0.0 4.8 0.00 0.00 0.00 53 1012.1
20260503211101 16 168 0.0 4.8 0.00 0.00 0.00 55 1012.0
20260503211003 16 150 0.0 4.8 0.00 0.00 0.00 55 1012.0
20260503210901 16 163 0.0 1.6 0.00 0.00 0.00 55 1012.1
20260503210800 16 161 0.0 1.6 0.00 0.00 0.00 55 1012.1
20260503210700 16 194 0.0 0.0 0.00 0.00 0.00 54 1012.1
20260503210602 16 178 0.0 3.2 0.00 0.00 0.00 56 1012.1
20260503210301 16 227 0.0 3.2 0.00 0.00 0.00 53 1012.1
20260503210003 16 227 0.0 3.2 0.00 0.00 0.00 53 1012.1
20260503205800 16 235 0.0 9.7 0.00 0.00 0.00 54 1012.2
20260503205701 16 244 0.0 9.7 0.00 0.00 0.00 55 1012.1
20260503205602 16 118 0.0 9.7 0.00 0.00 0.00 53 1012.3
20260503205504 16 178 0.0 9.7 0.00 0.00 0.00 55 1012.1
20260503205401 16 128 0.0 9.7 0.00 0.00 0.00 55 1012.3
20260503205303 16 229 0.0 9.7 0.00 0.00 0.00 54 1012.3
20260503205200 16 206 0.0 9.7 0.00 0.00 0.00 53 1012.4
20260503205106 16 170 0.0 9.7 0.00 0.00 0.00 54 1012.4
20260503205000 16 168 0.0 11.3 0.00 0.00 0.00 54 1012.6
20260503204900 16 111 0.0 11.3 0.00 0.00 0.00 55 1012.6
20260503204800 16 175 0.0 0.0 0.00 0.00 0.00 55 1012.7
20260503204601 16 157 0.0 0.0 0.00 0.00 0.00 56 1012.8
20260503204501 16 157 0.0 0.0 0.00 0.00 0.00 56 1012.8
20260503204401 16 341 0.0 3.2 0.00 0.00 0.00 56 1012.8
20260503204302 16 341 0.0 4.8 0.00 0.00 0.00 54 1012.9
20260503204001 16 219 0.0 4.8 0.00 0.00 0.00 55 1013.1
20260503203801 16 219 0.0 4.8 0.00 0.00 0.00 55 1013.2
20260503203700 16 219 0.0 4.8 0.00 0.00 0.00 53 1013.2
20260503203601 16 219 0.0 4.8 0.00 0.00 0.00 54 1013.2
20260503203503 16 156 0.0 4.8 0.00 0.00 0.00 56 1013.4
20260503203300 16 254 0.0 0.0 0.00 0.00 0.00 53 1013.4
20260503203200 16 254 0.0 0.0 0.00 0.00 0.00 54 1013.5
20260503203102 16 254 0.0 0.0 0.00 0.00 0.00 54 1013.5
20260503203000 16 254 0.0 0.0 0.00 0.00 0.00 56 1013.5
20260503202900 16 254 0.0 0.0 0.00 0.00 0.00 54 1013.6
20260503202801 16 197 0.0 0.0 0.00 0.00 0.00 55 1013.6
20260503202601 16 197 0.0 0.0 0.00 0.00 0.00 53 1013.7
20260503202500 16 197 0.0 0.0 0.00 0.00 0.00 54 1013.8
20260503202400 16 289 0.0 0.0 0.00 0.00 0.00 54 1013.8
20260503202304 17 289 0.0 0.0 0.00 0.00 0.00 55 1013.7
20260503202100 17 289 0.0 1.6 0.00 0.00 0.00 54 1014.0
20260503201800 17 105 0.0 6.4 0.00 0.00 0.00 52 1014.1
20260503201701 17 105 0.0 6.4 0.00 0.00 0.00 53 1014.1
20260503201601 17 105 0.0 6.4 0.00 0.00 0.00 53 1014.2
20260503201503 17 105 0.0 6.4 0.00 0.00 0.00 53 1014.2
20260503201401 17 105 0.0 6.4 0.00 0.00 0.00 52 1014.0
20260503201301 17 293 0.0 6.4 0.00 0.00 0.00 53 1014.0
20260503201200 17 208 0.0 6.4 0.00 0.00 0.00 54 1014.1
20260503201103 17 322 0.0 4.8 0.00 0.00 0.00 55 1014.2
20260503201001 17 321 0.0 6.4 0.00 0.00 0.00 55 1014.2
20260503200800 17 321 0.0 6.4 0.00 0.00 0.00 54 1014.1
20260503200704 17 321 0.0 6.4 0.00 0.00 0.00 53 1014.0
20260503200601 17 292 0.0 6.4 0.00 0.00 0.00 54 1014.0
20260503200501 17 292 0.0 6.4 0.00 0.00 0.00 55 1014.0
20260503200400 17 292 0.0 6.4 0.00 0.00 0.00 55 1014.0
20260503200303 17 292 0.0 6.4 0.00 0.00 0.00 54 1014.0
20260503200200 17 305 0.0 9.7 0.00 0.00 0.00 56 1013.9
20260503200101 17 333 0.0 16.1 0.00 0.00 0.00 53 1013.9
20260503200003 17 299 0.0 16.1 0.00 0.00 0.00 54 1013.9
20260503195905 17 299 0.0 16.1 0.00 0.00 0.00 53 1013.9
20260503195800 17 299 0.0 16.1 0.00 0.00 0.00 54 1013.9
20260503195700 17 299 0.0 16.1 0.00 0.00 0.00 53 1014.0
20260503195503 17 261 1.6 17.7 0.00 0.00 0.00 52 1013.9
20260503195401 17 273 1.6 17.7 0.00 0.00 0.00 51 1013.9
20260503195300 17 229 1.6 17.7 0.00 0.00 0.00 53 1013.9
20260503195102 17 192 0.0 17.7 0.00 0.00 0.00 50 1013.8
20260503194900 17 186 0.0 17.7 0.00 0.00 0.00 52 1013.8
20260503194800 17 284 0.0 17.7 0.00 0.00 0.00 54 1013.9
20260503194702 17 261 0.0 17.7 0.00 0.00 0.00 53 1013.8
20260503194601 17 135 0.0 17.7 0.00 0.00 0.00 51 1013.8
20260503194500 17 215 0.0 9.7 0.00 0.00 0.00 50 1013.8
20260503194304 17 280 0.0 6.4 0.00 0.00 0.00 52 1013.9
20260503194201 17 5 0.0 0.0 0.00 0.00 0.00 50 1014.0
20260503194101 17 284 0.0 0.0 0.00 0.00 0.00 51 1014.1
20260503194001 17 284 0.0 0.0 0.00 0.00 0.00 51 1014.1
20260503193800 17 286 0.0 11.3 0.00 0.00 0.00 56 1014.0
20260503193701 17 275 0.0 11.3 0.00 0.00 0.00 56 1014.1
20260503193559 17 265 0.0 11.3 0.00 0.00 0.00 54 1014.0
20260503193505 17 265 0.0 11.3 0.00 0.00 0.00 53 1014.0
20260503193402 17 196 1.6 11.3 0.00 0.00 0.00 52 1013.8
20260503193300 17 196 1.6 11.3 0.00 0.00 0.00 52 1014.0
20260503193103 17 214 0.0 16.1 0.00 0.00 0.00 52 1014.1
20260503193001 17 337 0.0 16.1 0.00 0.00 0.00 51 1014.1
20260503192901 17 236 0.0 16.1 0.00 0.00 0.00 53 1014.2
20260503192801 17 264 0.0 16.1 0.00 0.00 0.00 52 1014.1
20260503192703 17 264 0.0 16.1 0.00 0.00 0.00 52 1014.2
20260503192600 17 264 0.0 16.1 0.00 0.00 0.00 53 1014.1
20260503192501 17 262 0.0 16.1 0.00 0.00 0.00 51 1014.1
20260503192305 17 242 0.0 8.0 0.00 0.00 0.00 51 1014.1
20260503192200 17 195 0.0 8.0 0.00 0.00 0.00 52 1014.2
20260503192100 17 276 0.0 8.0 0.00 0.00 0.00 51 1014.1
20260503192001 17 276 0.0 8.0 0.00 0.00 0.00 50 1014.3
20260503191800 17 276 0.0 8.0 0.00 0.00 0.00 52 1014.1
20260503191700 17 150 0.0 4.8 0.00 0.00 0.00 52 1014.3
20260503191601 17 150 0.0 4.8 0.00 0.00 0.00 51 1014.5
20260503191504 17 136 0.0 4.8 0.00 0.00 0.00 51 1014.5
20260503191400 17 132 0.0 4.8 0.00 0.00 0.00 51 1014.6
20260503191301 17 212 0.0 4.8 0.00 0.00 0.00 51 1014.5
20260503191104 17 223 0.0 4.8 0.00 0.00 0.00 53 1014.5
20260503191000 17 279 0.0 4.8 0.00 0.00 0.00 53 1014.7
20260503190900 17 279 0.0 4.8 0.00 0.00 0.00 52 1014.6
20260503190501 17 237 0.0 6.4 0.00 0.00 0.00 50 1014.5
20260503190401 17 130 0.0 6.4 0.00 0.00 0.00 53 1014.5
20260503190303 17 102 0.0 6.4 0.00 0.00 0.00 51 1014.6
20260503190200 17 251 0.0 6.4 0.00 0.00 0.00 50 1014.6
20260503190004 17 250 0.0 6.4 0.00 0.00 0.00 53 1014.7
20260503185902 17 250 0.0 6.4 0.00 0.00 0.00 51 1014.6
20260503185801 17 286 0.0 4.8 0.00 0.00 0.00 50 1014.5
20260503185659 17 262 0.0 3.2 0.00 0.00 0.00 50 1014.8
20260503185504 17 251 0.0 3.2 0.00 0.00 0.00 52 1014.7
20260503185400 17 263 0.0 3.2 0.00 0.00 0.00 53 1014.7
20260503185259 17 263 0.0 3.2 0.00 0.00 0.00 52 1014.7
20260503185201 17 263 0.0 3.2 0.00 0.00 0.00 51 1014.6
20260503185103 17 220 0.0 3.2 0.00 0.00 0.00 51 1014.7
20260503184901 17 271 0.0 3.2 0.00 0.00 0.00 51 1014.8
20260503184801 17 244 0.0 3.2 0.00 0.00 0.00 50 1014.7
20260503184702 17 242 0.0 3.2 0.00 0.00 0.00 50 1014.8
20260503184601 17 256 0.0 1.6 0.00 0.00 0.00 49 1014.8
20260503184500 17 256 0.0 1.6 0.00 0.00 0.00 48 1015.0
20260503184401 17 252 0.0 1.6 0.00 0.00 0.00 50 1015.0
20260503184100 17 210 0.0 4.8 0.00 0.00 0.00 50 1015.2
20260503183959 17 288 0.0 4.8 0.00 0.00 0.00 53 1015.2
20260503183905 17 270 0.0 4.8 0.00 0.00 0.00 52 1015.1
20260503183800 17 257 0.0 4.8 0.00 0.00 0.00 52 1015.2
20260503183701 17 257 0.0 4.8 0.00 0.00 0.00 53 1015.2
20260503183600 17 257 0.0 4.8 0.00 0.00 0.00 52 1015.1
20260503183503 17 257 0.0 6.4 0.00 0.00 0.00 53 1015.1
20260503183300 17 199 0.0 6.4 0.00 0.00 0.00 52 1015.2
20260503183159 17 180 0.0 6.4 0.00 0.00 0.00 50 1015.2
20260503183103 17 251 0.0 6.4 0.00 0.00 0.00 51 1015.2
20260503182959 17 251 0.0 6.4 0.00 0.00 0.00 51 1015.3
20260503182901 17 251 0.0 6.4 0.00 0.00 0.00 52 1015.3
20260503182800 17 277 0.0 6.4 0.00 0.00 0.00 51 1015.3
20260503182501 17 11 0.0 0.0 0.00 0.00 0.00 53 1015.4
20260503182400 17 11 0.0 0.0 0.00 0.00 0.00 51 1015.4
20260503182305 17 12 0.0 11.3 0.00 0.00 0.00 52 1015.5
20260503182100 17 281 0.0 11.3 0.00 0.00 0.00 52 1015.5
20260503181903 17 281 0.0 11.3 0.00 0.00 0.00 52 1015.6
20260503181800 17 281 0.0 11.3 0.00 0.00 0.00 54 1015.6
20260503181700 17 281 0.0 11.3 0.00 0.00 0.00 52 1015.6
20260503181506 17 148 0.0 9.7 0.00 0.00 0.00 51 1015.6
20260503181300 17 169 0.0 3.2 0.00 0.00 0.00 52 1015.8
20260503181201 17 294 0.0 3.2 0.00 0.00 0.00 55 1015.8
20260503181001 17 215 0.0 4.8 0.00 0.00 0.00 51 1015.8
20260503180800 17 211 0.0 4.8 0.00 0.00 0.00 52 1015.8
20260503180703 17 204 0.0 8.0 0.00 0.00 0.00 53 1015.8
20260503180400 17 240 0.0 8.0 0.00 0.00 0.00 55 1015.9
20260503180303 17 309 0.0 8.0 0.00 0.00 0.00 56 1015.9
20260503180200 17 311 0.0 8.0 0.00 0.00 0.00 53 1016.0
20260503180004 17 296 0.0 12.9 0.00 0.00 0.00 53 1016.0
20260503175700 17 256 0.0 12.9 0.00 0.00 0.00 54 1016.0
20260503175601 17 232 0.0 12.9 0.00 0.00 0.00 54 1016.0
20260503175505 17 121 0.0 12.9 0.00 0.00 0.00 55 1015.9
20260503175401 17 217 0.0 12.9 0.00 0.00 0.00 55 1016.0
20260503175201 17 34 0.0 0.0 0.00 0.00 0.00 54 1016.4
20260503175104 17 248 0.0 6.4 0.00 0.00 0.00 53 1016.5
20260503174959 17 226 0.0 6.4 0.00 0.00 0.00 52 1016.4
20260503174900 17 226 0.0 6.4 0.00 0.00 0.00 53 1016.4
20260503174801 17 227 0.0 6.4 0.00 0.00 0.00 54 1016.5
20260503174703 16 190 0.0 9.7 0.00 0.00 0.00 53 1016.5
20260503174601 16 192 0.0 9.7 0.00 0.00 0.00 53 1016.6
20260503174401 16 180 0.0 9.7 0.00 0.00 0.00 54 1016.5
20260503174302 16 180 0.0 9.7 0.00 0.00 0.00 54 1016.5
20260503174201 16 136 0.0 9.7 0.00 0.00 0.00 54 1016.5
20260503174100 16 134 0.0 9.7 0.00 0.00 0.00 56 1016.5
20260503173801 16 269 0.0 9.7 0.00 0.00 0.00 54 1016.5
20260503173659 16 275 0.0 1.6 0.00 0.00 0.00 53 1016.5
20260503173600 16 276 0.0 1.6 0.00 0.00 0.00 55 1016.6
20260503173504 16 286 0.0 1.6 0.00 0.00 0.00 55 1016.6
20260503173301 16 221 0.0 1.6 0.00 0.00 0.00 53 1016.7
20260503173103 16 195 0.0 6.4 0.00 0.00 0.00 52 1016.8
20260503173001 16 207 0.0 6.4 0.00 0.00 0.00 53 1016.8
20260503172704 16 273 0.0 6.4 0.00 0.00 0.00 56 1016.7
20260503172600 16 336 0.0 6.4 0.00 0.00 0.00 54 1016.8
20260503172401 16 39 0.0 6.4 0.00 0.00 0.00 54 1016.8
20260503172306 16 17 0.0 6.4 0.00 0.00 0.00 55 1016.9
20260503172200 16 151 0.0 4.8 0.00 0.00 0.00 54 1016.8
20260503172001 16 238 0.0 4.8 0.00 0.00 0.00 54 1016.8
20260503171800 16 182 0.0 4.8 0.00 0.00 0.00 53 1016.8
20260503171701 16 182 0.0 4.8 0.00 0.00 0.00 53 1016.8
20260503171601 16 257 0.0 4.8 0.00 0.00 0.00 54 1016.8
20260503171503 16 284 0.0 1.6 0.00 0.00 0.00 56 1016.8
20260503171300 16 225 0.0 0.0 0.00 0.00 0.00 51 1016.9
20260503171201 16 225 0.0 0.0 0.00 0.00 0.00 52 1016.7
20260503171102 16 217 0.0 0.0 0.00 0.00 0.00 52 1016.7
20260503171000 16 216 0.0 0.0 0.00 0.00 0.00 52 1016.8
20260503170900 16 173 0.0 0.0 0.00 0.00 0.00 52 1016.8
20260503170800 16 173 0.0 0.0 0.00 0.00 0.00 53 1016.8
20260503170703 16 171 0.0 0.0 0.00 0.00 0.00 53 1016.9
20260503170601 16 171 0.0 0.0 0.00 0.00 0.00 52 1016.8
20260503170500 16 171 0.0 1.6 0.00 0.00 0.00 52 1016.8
20260503170359 16 171 0.0 11.3 0.00 0.00 0.00 52 1016.8
20260503170303 16 169 0.0 11.3 0.00 0.00 0.00 53 1016.8
20260503170200 16 181 0.0 11.3 0.00 0.00 0.00 54 1016.9
20260503160200 14 188 0.0 0.0 0.00 0.00 0.00 57 1017.8
20260503150901 12 302 0.0 0.0 0.00 0.00 0.00 58 1018.3
20260503150600 12 302 0.0 9.7 0.00 0.00 0.00 57 1018.3
20260503150500 12 302 0.0 9.7 0.00 0.00 0.00 58 1018.3
20260503150201 12 298 0.0 9.7 0.00 0.00 0.00 60 1018.4
20260503140300 11 187 0.0 8.0 0.00 0.00 0.00 63 1018.5
20260503131400 7 184 0.0 1.6 0.00 0.00 0.00 79 1018.7
20260503131303 7 184 0.0 1.6 0.00 0.00 0.00 79 1018.6
20260503131200 7 184 0.0 1.6 0.00 0.00 0.00 79 1018.6
20260503131100 7 131 0.0 0.0 0.00 0.00 0.00 79 1018.7
20260503131000 7 131 0.0 0.0 0.00 0.00 0.00 79 1018.6
20260503130904 7 131 0.0 0.0 0.00 0.00 0.00 80 1018.6
20260503130800 7 131 0.0 0.0 0.00 0.00 0.00 79 1018.7
20260503130700 7 131 0.0 0.0 0.00 0.00 0.00 79 1018.7
20260503130600 7 130 0.0 0.0 0.00 0.00 0.00 80 1018.7
20260503130400 7 130 0.0 0.0 0.00 0.00 0.00 80 1018.6
20260503130201 6 130 0.0 0.0 0.00 0.00 0.00 81 1018.6
20260503130103 6 130 0.0 0.0 0.00 0.00 0.00 82 1018.5
20260503110701 1 49 0.0 0.0 0.00 0.00 0.00 93 1018.1
20260503110602 1 49 0.0 0.0 0.00 0.00 0.00 93 1018.1
20260503110403 1 49 0.0 0.0 0.00 0.00 0.00 93 1018.1
20260503110301 1 49 0.0 0.0 0.00 0.00 0.00 93 1018.0
20260503110201 1 49 0.0 0.0 0.00 0.00 0.00 93 1018.1
20260503100201 1 49 0.0 0.0 0.00 0.00 0.00 93 1017.8
20260503090404 1 49 0.0 0.0 0.00 0.00 0.00 92 1017.9
20260503090301 1 49 0.0 0.0 0.00 0.00 0.00 92 1017.9
20260503090201 1 49 0.0 0.0 0.00 0.00 0.00 92 1017.9
20260503081601 1 49 0.0 0.0 0.00 0.00 0.00 92 1017.7
20260503081502 1 49 0.0 0.0 0.00 0.00 0.00 92 1017.8
20260503081303 1 49 0.0 0.0 0.00 0.00 0.00 92 1017.8
20260503081201 1 49 0.0 0.0 0.00 0.00 0.00 92 1017.9
20260503081101 1 49 0.0 0.0 0.00 0.00 0.00 92 1017.9
20260503081001 1 49 0.0 0.0 0.00 0.00 0.00 92 1017.8
20260503080904 1 49 0.0 0.0 0.00 0.00 0.00 92 1017.8
20260503080701 1 49 0.0 0.0 0.00 0.00 0.00 92 1017.8
20260503080601 1 49 0.0 0.0 0.00 0.00 0.00 92 1017.9
20260503080504 1 49 0.0 0.0 0.00 0.00 0.00 92 1017.9
20260503080402 1 49 0.0 0.0 0.00 0.00 0.00 92 1017.9
20260503080302 1 49 0.0 0.0 0.00 0.00 0.00 92 1017.8
20260503080201 1 49 0.0 0.0 0.00 0.00 0.00 92 1017.9
20260503072901 1 49 0.0 0.0 0.00 0.00 0.00 92 1017.8
20260503072801 1 49 0.0 0.0 0.00 0.00 0.00 92 1017.7
20260503072701 1 49 0.0 0.0 0.00 0.00 0.00 92 1017.7
20260503072604 1 49 0.0 0.0 0.00 0.00 0.00 92 1017.7
20260503072501 1 49 0.0 0.0 0.00 0.00 0.00 92 1017.7
20260503072402 1 49 0.0 0.0 0.00 0.00 0.00 92 1017.7
20260503072203 1 49 0.0 0.0 0.00 0.00 0.00 92 1017.8
20260503072101 1 49 0.0 0.0 0.00 0.00 0.00 92 1017.7
20260503072001 1 49 0.0 0.0 0.00 0.00 0.00 92 1017.7
20260503071901 1 49 0.0 0.0 0.00 0.00 0.00 92 1017.7
20260503071803 1 49 0.0 0.0 0.00 0.00 0.00 92 1017.7
20260503071602 1 49 0.0 0.0 0.00 0.00 0.00 92 1017.7
20260503071502 1 49 0.0 0.0 0.00 0.00 0.00 92 1017.8
20260503071405 1 49 0.0 0.0 0.00 0.00 0.00 92 1017.7
20260503071302 1 49 0.0 0.0 0.00 0.00 0.00 92 1017.8
20260503071202 1 49 0.0 0.0 0.00 0.00 0.00 92 1017.8
20260503071101 1 49 0.0 0.0 0.00 0.00 0.00 92 1017.7
20260503071004 1 49 0.0 0.0 0.00 0.00 0.00 92 1017.8
20260503070901 1 49 0.0 0.0 0.00 0.00 0.00 92 1017.8
20260503070801 1 49 0.0 0.0 0.00 0.00 0.00 92 1017.7
20260503070701 1 49 0.0 0.0 0.00 0.00 0.00 92 1017.8
20260503070603 1 49 0.0 0.0 0.00 0.00 0.00 92 1017.8
20260503070501 1 49 0.0 0.0 0.00 0.00 0.00 92 1017.8
20260503070401 1 49 0.0 0.0 0.00 0.00 0.00 92 1017.8
20260503070302 1 49 0.0 0.0 0.00 0.00 0.00 92 1017.8
20260503070204 1 49 0.0 0.0 0.00 0.00 0.00 92 1017.8